Location: Ostrava
(49.8330°N, 18.2830°E)
Time: 15:54:48
(UTC+02:00)

Iridium 7 - Visible Passes

Search period start: 21 September 2017 00:00
Search period end: 01 October 2017 00:00
Orbit: 776 x 779 km, 86.4° (Epoch: 20 September)

Date Brightness Start Highest point End Pass type
(mag) Time Alt. Az. Time Alt. Az. Time Alt. Az.
21 Sep 5.5 19:25:00 10° S 19:30:13 83° E 19:35:28 10° N visible
21 Sep 8.5 21:08:28 10° WSW 21:11:40 16° WNW 21:14:53 10° NNW visible
22 Sep 8.0 05:50:26 10° NNE 05:54:57 28° ENE 05:59:25 10° SE visible
22 Sep 7.8 20:33:24 10° SW 20:37:45 26° WNW 20:42:06 10° NNW visible
23 Sep 8.6 05:17:35 10° NNE 05:21:02 18° ENE 05:24:29 10° ESE visible
23 Sep 6.9 19:59:00 10° SSW 20:03:57 43° W 20:08:56 10° N visible
24 Sep 9.2 04:46:04 10° NE 04:47:00 10° ENE 04:47:54 10° ENE visible
24 Sep 5.9 19:25:06 10° S 19:30:18 73° W 19:35:33 10° N visible
24 Sep 8.9 21:10:08 10° W 21:12:03 12° WNW 21:13:57 10° NW visible
25 Sep 7.3 05:50:17 10° N 05:55:10 38° ENE 06:00:00 10° SE visible
25 Sep 8.3 20:34:17 10° WSW 20:38:02 20° WNW 20:41:48 10° NNW visible
26 Sep 8.2 05:17:10 10° NNE 05:21:21 23° ENE 05:25:29 10° SE visible
26 Sep 7.5 19:59:32 10° SW 20:04:09 32° WNW 20:08:49 10° NNW visible
27 Sep 8.8 04:44:35 10° NNE 04:47:23 14° ENE 04:50:11 10° E visible
27 Sep 6.5 19:25:20 10° SSW 19:30:26 53° W 19:35:33 10° N visible
28 Sep 6.5 05:50:13 10° N 05:55:20 52° E 06:00:25 10° SSE visible
28 Sep 8.7 20:35:32 10° W 20:38:22 15° WNW 20:41:13 10° NNW visible
29 Sep 7.6 05:16:57 10° NNE 05:21:36 31° ENE 05:26:13 10° SE visible
29 Sep 8.1 20:00:15 10° SW 20:04:25 24° WNW 20:08:36 10° NNW visible
30 Sep 8.4 04:44:00 10° NNE 04:47:44 19° ENE 04:51:27 10° ESE visible
30 Sep 7.2 19:25:45 10° SSW 19:30:36 39° WNW 19:35:29 10° N visible
